Location: Sigmaringen
(48.0900°N, 9.2120°E)
Time: 03:10:35
(UTC+01:00)

ISS - Pass Details

Date: 16 November 2017
Orbit: 402 x 407 km, 51.6° (Epoch: 22 November)

Event Time Altitude Azimuth Distance (km) Brightness Sun altitude
Exits shadow 05:38:09 34° 200° (SSW) 677 -2.9 -18.8°
Drops below altitude 10° 05:40:50 10° 147° (SSE) 1,449 -0.5 -18.3°
Sets 05:43:00 0° 138° (SE) 2,305 0.8 -18.0°
